Weather observations for the past three days for
Fairchild Air Force Base
| Date | Time (pdt) | Wind (kph) | Vis. (km) | Weather | Sky Cond. | Temperature (ºC) | Relative Humidity | Wind Chill (°C) | Heat Index (°C) | Pressure | Precipitation (cm) | ||||||
|---|---|---|---|---|---|---|---|---|---|---|---|---|---|---|---|---|---|
| Air | Dwpt | 6 hour | altimeter (cm) | sea level (mb) | 1 hr | 3 hr | 6 hr | ||||||||||
| Max. | Min. | ||||||||||||||||
| 07 | 04:55 | SW 15 | 16.09 | Fair | CLR | 8.9 | 4.5 | 15.4 | 8.5 | 74% | 7 | 75.95 | 1011.6 | ||||
| 07 | 03:55 | SW 20 | 16.09 | Fair | CLR | 8.6 | 5.2 | 79% | 6 | 75.92 | 1011.1 | ||||||
| 07 | 02:55 | SW 19 | 16.09 | Fair | CLR | 9 | 5.2 | 77% | 7 | 75.87 | 1010.4 | ||||||
| 07 | 01:55 | SW 20 | 16.09 | Fair | CLR | 10.2 | 4.3 | 67% | 75.84 | 1010.1 | |||||||
| 07 | 00:55 | SW 15 | 16.09 | Fair | CLR | 13.1 | 3.7 | 53% | 75.82 | 1009.6 | |||||||
| 06 | 23:55 | SW 19 | 16.09 | A Few Clouds | FEW170 | 14 | 4.3 | 52% | 75.79 | 1009.2 | |||||||
| 06 | 22:55 | SW 13 | 16.09 | A Few Clouds | FEW190 | 15.4 | 4.7 | 23.8 | 15.4 | 49% | 75.77 | 1008.9 | |||||
| 06 | 21:55 | SW 17 | 16.09 | Partly Cloudy | SCT180 | 16.2 | 4.9 | 47% | 75.77 | 1009.0 | |||||||
| 06 | 20:55 | W 26 | 16.09 | Fair | CLR | 18.3 | 4.1 | 39% | 75.74 | 1008.7 | |||||||
| 06 | 19:55 | SW 15 | 16.09 | Fair | CLR | 20.5 | 4.1 | 34% | 75.74 | 1008.5 | |||||||
| 06 | 18:55 | SW 28 | 16.09 | Fair | CLR | 22.5 | 7.8 | 39% | 75.77 | 1008.9 | |||||||
| 06 | 17:55 | SW 19 | 16.09 | Fair | CLR | 23.4 | 7.5 | 36% | 75.82 | 1009.7 | |||||||
| 06 | 16:55 | SW 22 | 16.09 | Fair | CLR | 23.8 | 6.5 | 25.5 | 20.1 | 33% | 75.84 | 1010.1 | |||||
| 06 | 15:55 | SW 26 | 16.09 | A Few Clouds | FEW190 | 24.4 | 7.5 | 34% | 25 | 75.87 | 1010.4 | ||||||
| 06 | 14:55 | SW 24 | 16.09 | Fair | CLR | 25.2 | 7.3 | 32% | 26 | 75.9 | 1010.6 | ||||||
| 06 | 13:55 | SW 28 | 16.09 | Fair | CLR | 24.8 | 7 | 32% | 25 | 75.92 | 1010.9 | ||||||
| 06 | 12:55 | SW 13 | 16.09 | Fair | CLR | 23.8 | 9 | 39% | 75.97 | 1011.5 | |||||||
| 06 | 11:55 | W 11 | 16.09 | Fair | CLR | 22.1 | 8.9 | 43% | 76.02 | 1012.3 | |||||||
| 06 | 10:55 | S 15 | 16.09 | Fair | CLR | 20 | 8.6 | 20 | 9.6 | 48% | 76.02 | 1012.3 | |||||
| 06 | 09:55 | S 9 | 16.09 | Fair | CLR | 18.3 | 7.4 | 49% | 76.05 | 1013.0 | |||||||
| 06 | 08:55 | SE 17 | 16.09 | Fair | CLR | 16.5 | 5.4 | 48% | 76.02 | 1012.3 | |||||||
| 06 | 07:55 | SE 11 | 16.09 | Fair | CLR | 14.5 | 2.7 | 45% | 76.05 | 1012.8 | |||||||
| 06 | 06:55 | SE 6 | 16.09 | Fair | CLR | 12.1 | 2 | 50% | 76.05 | 1012.8 | |||||||
| 06 | 05:55 | Calm | 16.09 | Fair | CLR | 10.2 | -0.3 | 48% | 76.02 | 1012.7 | |||||||
| 06 | 04:55 | E 6 | 16.09 | Fair | CLR | 9.7 | 0 | 14.9 | 9 | 51% | 75.97 | 1012.0 | |||||
| 06 | 03:55 | E 9 | 16.09 | Fair | CLR | 9.2 | 0.9 | 56% | 8 | 75.97 | 1012.0 | ||||||
| 06 | 02:55 | Calm | 16.09 | Fair | CLR | 11.2 | 0.9 | 49% | 75.95 | 1011.6 | |||||||
| 06 | 01:55 | SE 7 | 16.09 | Fair | CLR | 11.3 | 1.8 | 52% | 75.97 | 1012.0 | |||||||
| 06 | 00:55 | SE 7 | 16.09 | Fair | CLR | 14 | 1.3 | 42% | 75.95 | 1011.5 | |||||||
| 05 | 23:55 | S 6 | 16.09 | Fair | CLR | 14.3 | 1.2 | 41% | 75.95 | 1011.5 | |||||||
| 05 | 22:55 | S 6 | 16.09 | Fair | CLR | 15 | 2.8 | 23.1 | 14.5 | 44% | 75.92 | 1011.1 | |||||
| 05 | 21:55 | Calm | 16.09 | Fair | CLR | 14.7 | 3.2 | 46% | 75.9 | 1010.9 | |||||||
| 05 | 20:55 | S 7 | 16.09 | Fair | CLR | 18.2 | 2.9 | 36% | 75.87 | 1010.4 | |||||||
| 05 | 19:55 | SE 6 | 16.09 | Fair | CLR | 19.6 | 4.1 | 36% | 75.84 | 1010.1 | |||||||
| 05 | 18:55 | Calm | 16.09 | Fair | CLR | 21.7 | 4.7 | 33% | 75.84 | 1010.1 | |||||||
| 05 | 17:55 | SE 6 | 16.09 | Fair | CLR | 21.9 | 1.5 | 26% | 75.84 | 1010.2 | |||||||
| 05 | 16:55 | NW 13 | 16.09 | Fair | CLR | 22.5 | 2 | 22.9 | 19 | 26% | 75.9 | 1010.8 | |||||
| 05 | 14:55 | NW 11 | 16.09 | Fair | CLR | 21.6 | 1.8 | 27% | 75.97 | 1011.8 | |||||||
| 05 | 13:55 | N 17 | 16.09 | Fair | CLR | 21.3 | 3.5 | 31% | 76 | 1012.1 | |||||||
| 05 | 12:55 | E 9 | 16.09 | Fair | CLR | 20.5 | 2.8 | 31% | 76.02 | 1012.3 | |||||||
| 05 | 11:55 | NE 15 | 16.09 | Fair | CLR | 19.4 | 1.8 | 31% | 76.02 | 1012.5 | |||||||
| 05 | 10:55 | E 20 | 16.09 | Fair | CLR | 19.1 | 2 | 19.1 | 9.5 | 32% | 76.02 | 1012.5 | |||||
| 05 | 09:55 | E 20 | 16.09 | Fair | CLR | 17.6 | 2.3 | 36% | 76.05 | 1012.7 | |||||||
| 05 | 08:55 | E 20 | 16.09 | Fair | CLR | 16.1 | 2.5 | 40% | 76.05 | 1013.0 | |||||||
| 05 | 07:55 | E 20 | 16.09 | Fair | CLR | 14.8 | 2.7 | 44% | 76.02 | 1012.3 | |||||||
| 05 | 06:55 | E 13 | 16.09 | Fair | CLR | 12 | 3.2 | 55% | 75.97 | 1011.8 | |||||||
| 05 | 05:55 | E 13 | 16.09 | Fair | CLR | 9.6 | 2.4 | 61% | 8 | 75.92 | 1011.1 | ||||||
| 05 | 04:55 | E 11 | 16.09 | Fair | CLR | 11.4 | 2.7 | 16.5 | 10 | 55% | 75.9 | 1010.6 | |||||
| 05 | 03:55 | E 7 | 16.09 | Mostly Cloudy | BKN095 | 11.8 | 3.3 | 56% | 75.87 | 1010.1 | |||||||
| 05 | 02:55 | NE 7 | 16.09 | Fair | CLR | 12.7 | 2.5 | 50% | 75.84 | 1009.8 | |||||||
| 05 | 01:55 | E 15 | 16.09 | Fair | CLR | 13 | 2.8 | 50% | 75.79 | 1009.2 | |||||||
| 05 | 00:55 | E 7 | 16.09 | Fair | CLR | 14.2 | 2.7 | 46% | 75.77 | 1008.9 | |||||||
| 04 | 23:55 | E 17 | 16.09 | Fair | CLR | 15.4 | 2.9 | 43% | 75.72 | 1008.0 | |||||||
| 04 | 22:55 | E 17 | 16.09 | Fair | CLR | 15.4 | 2.9 | 24.8 | 15.4 | 43% | 75.69 | 1007.9 | |||||
| 04 | 21:55 | E 11 | 16.09 | Fair | CLR | 17 | 2.6 | 38% | 75.69 | 1007.9 | |||||||
| 04 | 20:55 | E 15 | 16.09 | Fair | CLR | 16.5 | 3.2 | 41% | 75.67 | 1007.7 | |||||||
| 04 | 19:55 | NE 15 | 16.09 | Fair | CLR | 21 | 2.8 | 30% | 75.62 | 1006.8 | |||||||
| 04 | 18:55 | NE 11 | 16.09 | Fair | CLR | 22.9 | 3.9 | 29% | 75.59 | 1006.5 | |||||||
| 04 | 17:55 | NE 20 | 16.09 | Fair | CLR | 24.2 | 2.9 | 25% | 25 | 75.62 | 1006.8 | ||||||
| 04 | 16:55 | NE 15 | 16.09 | Fair | CLR | 24.6 | 3.3 | 25.4 | 20.8 | 25% | 25 | 75.62 | 1006.8 | ||||
| 04 | 15:55 | N 11 | 16.09 | Fair | CLR | 25.1 | 4.2 | 26% | 25 | 75.64 | 1007.0 | ||||||
| 04 | 14:55 | NE 17 | 16.09 | Fair | CLR | 24.6 | 3.8 | 26% | 25 | 75.67 | 1007.5 | ||||||
| 04 | 13:55 | NE 6 | 16.09 | Fair | CLR | 23.6 | 4.5 | 29% | 75.69 | 1008.0 | |||||||
| 04 | 12:55 | NE 11 | 16.09 | Fair | CLR | 22.9 | 2.9 | 27% | 75.69 | 1007.9 | |||||||
| 04 | 11:55 | NE 19 | 16.09 | Fair | CLR | 22.2 | 5.2 | 33% | 75.72 | 1008.2 | |||||||
| 04 | 10:55 | E 15 | 16.09 | Fair | CLR | 20.7 | 5.9 | 20.7 | 10.6 | 38% | 75.72 | 1008.2 | |||||
| 04 | 09:55 | NE 11 | 16.09 | Fair | CLR | 19.1 | 5.9 | 42% | 75.72 | 1008.2 | |||||||
| 04 | 08:55 | NE 11 | 16.09 | Fair | CLR | 17.2 | 5.5 | 46% | 75.72 | 1008.2 | |||||||
| 04 | 06:55 | NE 7 | 16.09 | Fair | CLR | 12.4 | 4.8 | 60% | 75.69 | 1007.9 | |||||||
| 04 | 05:55 | Calm | 16.09 | Fair | CLR | 11 | 3.5 | 60% | 75.67 | 1007.5 | |||||||
| Date | Time (pdt) | Wind (kph) | Vis. (km) | Weather | Sky Cond. | Air | Dwpt | Max. | Min. | Relative Humidity | Wind Chill (°C) | Heat Index (°C) | altimeter (cm) | sea level (mb) | 1 hr | 3 hr | 6 hr |
| 6 hour | |||||||||||||||||
| Temperature (ºC) | Pressure | Precipitation (cm) | |||||||||||||||